Fort Myers, FL

4:07 AM EST on December 15, 2017 (GMT -0500)
Page

Weather History for KFMY - August, 2013

Change the Weather History Date:

Monday, August 5, 2013

  Actual Average Record
Temperature  
Mean Temperature 85 °F 84 °F  
Max Temperature 91 °F 92 °F 98 °F (1942)
Min Temperature 78 °F 75 °F 70 °F (1925)
Degree Days  
Heating Degree Days 0 0  
Month to date heating degree days 0 0  
Since 1 June heating degree days 0 0  
Since 1 July heating degree days 0 0  
Cooling Degree Days 20 18  
Month to date cooling degree days 91 90  
Year to date cooling degree days 2256 2245  
Since 1 June cooling degree days 1118 1179  
Growing Degree Days 34 (Base 50)    
Moisture  
Dew Point 76 °F    
Average Humidity 78    
Maximum Humidity 91    
Minimum Humidity 63    
Precipitation  
Precipitation 0.26 in 0.31 in 2.19 in (2000)
Month to date precipitation 1.56 1.54  
Year to date precipitation 32.10 32.47  
Sea Level Pressure  
Sea Level Pressure 30.01 in    
Wind  
Wind Speed 4 mph (West)    
Max Wind Speed 15 mph    
Max Gust Speed 18 mph    
Visibility 10 miles    
Events Rain    
T = Trace of Precipitation, MM = Missing Value Source: NWS Daily Summary

Daily Weather History Graph

Daily Weather History Graph

Search for Another Location

Airport or City:

Trip Planner

Search our weather history database for the weather conditions in past years. The results will help you decide how hot, cold, wet, or windy it might be!

Date:

Astronomy

Aug. 05, 2013 Rise Set
Actual Time 6:54 AM EDT 8:11 PM EDT
Civil Twilight 6:29 AM EDT 8:36 PM EDT
Nautical Twilight 6:00 AM EDT 9:05 PM EDT
Astronomical Twilight 5:29 AM EDT 9:36 PM EDT
Moon 5:47 AM EDT (8/5) 7:14 PM EDT (8/5)
Length of Visible Light 14h 06m
Length of Day
13h 17m
Waning Crescent, 1% of the Moon is Illuminated
Aug 5
Waning Crescent
Aug 6
New
Aug 14
First Quarter
Aug 20
Full
Aug 28
Last Quarter

Hourly Weather History & Observations

Time (EDT) Temp. Heat Index Dew Point Humidity Pressure Visibility Wind Dir Wind Speed Gust Speed Precip Events Conditions
12:53 AM 82.9 °F 91.8 °F 77.0 °F 82% 30.05 in 10.0 mi West 6.9 mph - N/A   Clear
1:53 AM 82.0 °F 90.2 °F 77.0 °F 85% 30.04 in 10.0 mi Calm Calm - N/A   Clear
2:53 AM 82.0 °F 90.2 °F 77.0 °F 85% 30.01 in 10.0 mi Calm Calm - N/A   Clear
3:53 AM 81.0 °F 87.9 °F 77.0 °F 88% 30.00 in 10.0 mi Calm Calm - N/A   Scattered Clouds
4:53 AM 81.0 °F 87.9 °F 77.0 °F 88% 29.99 in 10.0 mi Calm Calm - N/A   Clear
5:53 AM 81.0 °F 87.9 °F 77.0 °F 88% 30.00 in 10.0 mi Calm Calm - N/A   Scattered Clouds
6:53 AM 81.0 °F 87.3 °F 75.9 °F 85% 30.02 in 10.0 mi Calm Calm - N/A   Scattered Clouds
7:53 AM 82.9 °F 91.8 °F 77.0 °F 82% 30.03 in 10.0 mi NW 4.6 mph - N/A   Clear
8:53 AM 84.9 °F 94.1 °F 75.9 °F 74% 30.05 in 10.0 mi NNW 5.8 mph - N/A   Partly Cloudy
9:53 AM 87.1 °F 96.3 °F 75.0 °F 67% 30.05 in 10.0 mi Variable 4.6 mph - N/A   Mostly Cloudy
10:53 AM 86.0 °F 95.1 °F 75.0 °F 70% 30.05 in 10.0 mi Variable 3.5 mph - 0.14 in   Partly Cloudy
11:53 AM 84.9 °F 94.1 °F 75.9 °F 74% 30.05 in 10.0 mi Calm Calm - N/A   Partly Cloudy
12:53 PM 87.1 °F 98.8 °F 77.0 °F 72% 30.03 in 10.0 mi Variable 4.6 mph - 0.02 in   Mostly Cloudy
1:53 PM 87.1 °F 97.3 °F 75.9 °F 69% 30.01 in 10.0 mi West 10.4 mph - 0.00 in   Scattered Clouds
2:53 PM 90.0 °F 100.2 °F 75.0 °F 61% 29.98 in 10.0 mi West 13.8 mph - N/A   Scattered Clouds
3:53 PM 90.0 °F 100.2 °F 75.0 °F 61% 29.97 in 10.0 mi West 11.5 mph - N/A   Clear
4:53 PM 88.0 °F 96.5 °F 73.9 °F 63% 29.97 in 10.0 mi West 11.5 mph - N/A   Partly Cloudy
5:53 PM 87.1 °F 96.3 °F 75.0 °F 67% 29.96 in 10.0 mi West 9.2 mph - N/A   Scattered Clouds
6:53 PM 86.0 °F 95.1 °F 75.0 °F 70% 29.99 in 10.0 mi West 9.2 mph - N/A   Partly Cloudy
7:53 PM 84.9 °F 94.1 °F 75.9 °F 74% 30.00 in 10.0 mi NW 8.1 mph - N/A   Partly Cloudy
8:53 PM 84.9 °F 94.1 °F 75.9 °F 74% 30.00 in 10.0 mi Calm Calm - N/A   Clear
9:32 PM 78.8 °F - 75.2 °F 89% 30.00 in 10.0 mi SE 5.8 mph - 0.10 in Rain Light Rain
9:53 PM 79.0 °F - 75.0 °F 88% 30.01 in 10.0 mi SE 6.9 mph - 0.10 in   Mostly Cloudy
10:05 PM 78.8 °F - 75.2 °F 89% 30.00 in 10.0 mi ESE 4.6 mph - N/A   Scattered Clouds
10:53 PM 78.1 °F - 75.0 °F 90% 30.00 in 10.0 mi Calm Calm - N/A   Clear
11:53 PM 78.1 °F - 75.9 °F 93% 29.99 in 10.0 mi Calm Calm - N/A   Clear